Tracking 19846 objects as of 18-Sep-2019
HD Live streaming from Space Station
objects crossing your sky now

FENGYUN 1C DEB

Track FENGYUN 1C DEB now!
10-day predictions


NORAD ID: 37011
Int'l Code: 1999-025ECT
Perigee: 668.8 km
Apogee: 762.0 km
Inclination: 98.9 °
Period: 98.9 minutes
Semi major axis: 7086 km
RCS: 0.002 m2 (small)
Launch date: May 10, 1999
Source: People's Republic of China (PRC)
Launch site: Taiyaun Space Center, China (TSC)

Note: This is SATELLITE DEBRIS
aabbcc
Your satellite tracking list
Your tracking list is empty




NASA's NSSDC Master Catalog

Two Line Element Set (TLE):
1 37011U 99025ECT 19258.13036704  .00001666  00000-0  38538-3 0  9995
2 37011  98.9145 132.6781 0065803  41.0546 319.5575 14.55341222503046
Source of the keplerian elements: AFSPC